Temperature
-2 -2 -2 -2 -2 -2 -3 -3 -3 -3 -3 -3 -3 -3 -3 -2 -2 -2 -2 -2 -2 -2 -2 -2 -1 -1 -1 -1 -1 -1 -1 -1 -1 -0 0 1 1 2 2 2 3 3 3
-2 -3 -3 -3 -3 -3 -3 -3 -3 -3 -3 -3 -3 -3 -3 -3 -3 -3 -3 -2 -2 -2 -2 -2 -2 -2 -2 -2 -2 -2 -1 -1 -1 -1 -0 0 1 1 1 2 2 2 3
-3 -3 -3 -3 -4 -4 -4 -4 -4 -4 -4 -4 -4 -4 -4 -4 -4 -4 -3 -3 -3 -3 -3 -3 -3 -3 -2 -2 -2 -2 -2 -2 -1 -1 -1 -0 0 0 1 1 1 2 2
-3 -4 -4 -4 -4 -4 -4 -4 -4 -4 -4 -4 -4 -4 -4 -4 -4 -4 -4 -4 -4 -4 -4 -3 -3 -3 -3 -3 -3 -2 -2 -2 -2 -2 -1 -1 -1 -0 -0 0 1 1 1
-4 -4 -4 -5 -5 -5 -5 -5 -5 -5 -5 -5 -5 -5 -5 -5 -5 -5 -5 -5 -4 -4 -4 -4 -4 -4 -3 -3 -3 -3 -3 -2 -2 -2 -2 -1 -1 -1 -1 -0 -0 0 1
-4 -5 -5 -5 -5 -5 -5 -5 -5 -5 -5 -5 -5 -5 -5 -5 -5 -5 -5 -5 -5 -5 -5 -5 -4 -4 -4 -4 -4 -3 -3 -3 -2 -2 -2 -2 -1 -1 -1 -1 -1 -0 -0
-5 -5 -5 -6 -6 -6 -6 -6 -6 -6 -6 -6 -6 -6 -6 -6 -6 -6 -6 -6 -5 -5 -5 -5 -5 -5 -5 -4 -4 -4 -3 -3 -3 -2 -2 -2 -2 -1 -1 -1 -1 -1 -0
-5 -6 -6 -6 -6 -6 -6 -6 -6 -7 -7 -7 -7 -7 -6 -6 -6 -6 -6 -6 -6 -6 -6 -5 -5 -5 -5 -5 -5 -4 -4 -3 -3 -3 -3 -2 -2 -2 -2 -1 -1 -1 -1
-6 -6 -6 -6 -7 -7 -7 -7 -7 -7 -7 -7 -7 -7 -7 -7 -7 -7 -7 -7 -6 -6 -6 -6 -6 -6 -5 -5 -5 -5 -4 -4 -4 -3 -3 -3 -2 -2 -2 -2 -2 -2 -2
-6 -6 -7 -7 -7 -7 -7 -7 -7 -7 -7 -8 -8 -7 -7 -7 -7 -7 -7 -7 -7 -7 -6 -6 -6 -6 -6 -6 -5 -5 -5 -4 -4 -4 -4 -3 -3 -3 -3 -3 -2 -2 -2
-7 -7 -7 -7 -8 -8 -8 -8 -8 -8 -8 -8 -8 -8 -8 -8 -7 -7 -7 -7 -7 -7 -7 -7 -7 -6 -6 -6 -6 -6 -5 -5 -5 -4 -4 -4 -4 -3 -3 -3 -3 -3 -3
-7 -8 -8 -8 -8 -8 -8 -8 -8 -8 -8 -8 -8 -8 -8 -8 -8 -8 -8 -8 -8 -7 -7 -7 -7 -7 -7 -6 -6 -6 -6 -6 -6 -5 -5 -5 -4 -4 -4 -3 -3 -3 -3
-8 -8 -8 -8 -8 -9 -9 -9 -9 -9 -9 -9 -9 -9 -9 -8 -8 -8 -8 -8 -8 -8 -8 -8 -7 -7 -7 -7 -7 -7 -7 -6 -6 -6 -6 -5 -5 -5 -4 -4 -4 -4 -4
-9 -9 -9 -9 -9 -9 -9 -9 -9 -10 -10 -10 -10 -10 -9 -9 -9 -9 -9 -8 -8 -8 -8 -8 -8 -8 -8 -8 -8 -7 -7 -7 -7 -7 -7 -6 -6 -5 -5 -5 -5 -5 -4
-9 -9 -9 -10 -10 -10 -10 -10 -10 -10 -10 -10 -10 -10 -10 -10 -9 -9 -9 -9 -9 -9 -9 -9 -8 -8 -8 -8 -8 -8 -8 -8 -7 -7 -7 -7 -6 -6 -6 -5 -5 -5 -5
-10 -10 -10 -10 -10 -10 -10 -10 -10 -10 -10 -10 -10 -10 -10 -10 -10 -10 -10 -9 -9 -9 -9 -9 -9 -9 -9 -9 -9 -9 -8 -8 -8 -8 -8 -8 -7 -7 -6 -6 -6 -6 -6
-10 -10 -10 -11 -11 -11 -11 -11 -11 -11 -11 -11 -11 -11 -11 -11 -10 -10 -10 -10 -10 -10 -9 -10 -10 -10 -10 -10 -9 -9 -9 -9 -9 -8 -8 -8 -8 -8 -7 -7 -7 -7 -6
-11 -11 -11 -11 -11 -11 -11 -11 -11 -11 -11 -11 -11 -11 -11 -11 -11 -11 -10 -10 -10 -10 -10 -10 -10 -10 -10 -10 -10 -10 -9 -9 -9 -9 -9 -9 -8 -8 -8 -8 -7 -7 -7
-11 -11 -11 -12 -12 -12 -12 -12 -12 -12 -12 -12 -12 -11 -11 -11 -11 -11 -11 -11 -11 -11 -11 -11 -11 -11 -10 -10 -10 -10 -10 -10 -9 -9 -9 -9 -9 -9 -8 -8 -8 -8 -8
-11 -12 -12 -12 -12 -12 -12 -12 -12 -12 -12 -12 -12 -12 -12 -12 -12 -12 -12 -12 -12 -12 -11 -11 -11 -11 -11 -11 -10 -10 -10 -10 -10 -10 -10 -9 -9 -9 -9 -9 -8 -8 -8
-12 -12 -12 -12 -12 -12 -13 -12 -13 -13 -13 -13 -13 -13 -13 -13 -12 -12 -12 -12 -12 -12 -12 -12 -12 -11 -11 -11 -11 -11 -10 -10 -10 -10 -10 -10 -10 -9 -9 -9 -9 -9 -8
-12 -12 -12 -13 -13 -13 -13 -13 -13 -13 -13 -13 -13 -13 -13 -13 -13 -13 -12 -12 -12 -12 -12 -12 -12 -12 -12 -11 -11 -11 -11 -11 -11 -11 -10 -10 -10 -10 -10 -9 -9 -9 -9
-13 -13 -13 -13 -13 -13 -13 -13 -13 -13 -13 -13 -13 -13 -13 -13 -13 -13 -13 -13 -13 -12 -12 -12 -12 -12 -12 -12 -12 -12 -12 -11 -11 -11 -11 -11 -10 -10 -10 -10 -9 -9 -9
-13 -13 -13 -13 -13 -13 -13 -14 -13 -14 -14 -14 -14 -13 -13 -13 -13 -13 -13 -13 -13 -13 -12 -12 -12 -12 -12 -12 -12 -12 -12 -11 -11 -11 -11 -11 -11 -10 -10 -10 -10 -9 -9
-13 -13 -13 -14 -14 -14 -14 -14 -14 -14 -14 -14 -14 -14 -14 -14 -13 -13 -13 -13 -13 -13 -13 -12 -12 -12 -12 -12 -12 -12 -12 -11 -11 -11 -11 -11 -11 -10 -10 -10 -10 -10 -10
-14 -14 -14 -14 -14 -14 -14 -14 -14 -14 -14 -14 -14 -14 -14 -14 -14 -13 -13 -13 -13 -13 -13 -13 -13 -12 -12 -12 -12 -12 -12 -11 -11 -11 -11 -11 -11 -11 -10 -10 -10 -10 -10
Wind_Speed
4 4 4 4 5 5 5 6 7 7 8 8 8 9 9 9 9 8 8 9 9 8 8 8 9 8 7 7 8 8 8 8 10 9 7 7 8 8 7 8 9 9 10
4 4 5 5 5 5 6 7 7 8 8 8 8 9 9 9 9 9 9 9 9 9 9 9 9 8 9 8 8 9 9 9 9 10 8 7 8 8 8 8 7 8 8
4 5 5 5 5 6 6 7 7 8 8 8 8 9 9 9 10 10 9 9 9 9 9 9 9 9 9 8 9 10 9 8 8 8 8 6 6 6 6 6 7 6 6
5 5 5 6 6 6 7 7 7 8 8 8 8 9 9 10 10 10 10 10 10 9 9 9 9 10 10 10 9 9 9 9 8 7 7 6 6 6 6 5 5 4 5
5 5 5 6 6 6 7 7 7 7 8 8 9 9 9 9 9 10 10 10 10 9 9 9 10 11 12 10 8 8 8 8 7 7 7 6 6 5 6 5 6 4 5
5 5 5 5 6 6 7 7 7 8 8 8 8 9 10 8 12 14 12 9 9 9 9 9 9 10 11 12 13 12 10 9 9 8 8 9 9 8 7 6 6 5 5
5 5 5 6 6 6 6 7 7 8 8 8 9 9 10 11 14 14 14 10 9 9 9 8 7 8 10 9 10 11 11 12 11 10 10 10 10 9 8 8 8 7 7
5 5 5 5 6 6 7 7 8 7 8 8 9 9 10 10 13 14 14 10 9 9 9 9 9 9 8 9 8 9 8 9 10 9 9 9 8 8 8 9 8 6 4
5 5 6 6 6 7 7 8 7 8 8 8 9 9 10 10 13 13 13 8 8 9 8 9 9 9 10 10 9 9 9 8 9 10 10 10 10 9 8 5 5 5 4
5 6 6 6 6 7 7 8 7 7 8 8 9 9 9 10 12 13 13 7 7 7 7 7 9 9 11 10 7 7 8 8 7 7 6 7 7 8 8 8 7 6 4
5 6 6 6 7 7 7 7 7 7 8 8 9 8 9 10 11 12 12 7 7 7 7 6 6 10 11 10 9 7 8 8 6 6 5 4 4 4 4 5 5 6 6
5 6 6 6 6 6 7 7 7 7 8 8 8 8 7 8 9 10 12 11 10 8 7 6 7 10 10 10 7 8 8 7 5 4 4 4 3 3 3 3 3 3 3
5 6 6 6 6 6 6 7 6 6 6 6 7 7 7 7 8 11 12 12 11 8 6 8 9 9 9 7 7 7 6 4 4 4 4 4 4 3 2 2 2 1 1
6 6 6 6 6 6 5 5 6 6 6 6 7 7 7 7 7 7 7 7 8 7 6 7 8 8 6 6 5 5 4 4 4 4 4 4 3 2 2 2 2 2 1
6 6 6 6 6 6 6 6 6 6 7 7 7 7 8 8 9 12 9 7 6 7 7 5 4 4 4 3 4 4 3 3 3 3 3 3 3 2 2 2 2 2 2
5 5 5 5 5 6 6 6 7 8 10 11 11 10 9 11 13 12 12 11 10 9 6 4 4 4 4 4 4 4 4 3 3 3 3 3 3 3 3 2 2 3 3
5 6 5 5 5 6 6 6 7 7 9 10 10 11 11 12 12 11 10 9 9 8 5 4 4 4 4 4 4 4 4 4 4 4 4 3 3 3 3 3 3 3 3
6 6 6 5 5 6 6 6 6 7 7 7 8 10 11 11 11 11 10 8 6 5 4 4 4 4 4 4 4 4 4 4 4 4 4 3 3 3 3 3 3 4 3
5 5 5 5 5 5 6 6 6 6 7 7 7 8 10 10 10 9 8 5 5 5 5 5 4 4 4 4 4 4 4 4 4 4 4 4 4 4 4 4 4 4 4
5 7 7 5 5 5 5 5 6 6 6 6 7 7 7 7 6 6 5 4 5 5 5 5 5 5 5 5 5 4 4 4 5 4 4 4 4 4 5 5 4 4 4
5 6 7 6 5 5 5 6 6 6 6 6 6 7 9 6 6 6 5 5 5 5 5 5 5 5 5 5 5 5 5 5 5 5 5 5 4 5 5 5 5 5 4
5 5 5 5 5 5 6 6 6 6 6 7 7 7 10 6 5 5 5 6 6 6 6 6 5 5 5 5 5 5 5 6 5 5 5 5 5 5 5 5 5 4 4
4 5 5 5 5 6 6 5 6 6 6 7 7 6 6 6 6 6 6 6 6 6 6 6 6 6 6 6 6 6 6 6 6 6 6 6 6 6 5 6 6 6 6
4 5 5 5 5 5 5 6 6 6 6 6 6 6 6 6 6 7 7 6 6 6 6 6 6 8 9 8 8 8 8 9 8 8 8 8 7 7 6 6 6 7 7
4 4 4 5 5 5 5 6 6 6 6 6 6 7 7 7 7 7 7 6 7 7 8 8 7 8 10 11 10 10 11 12 11 9 9 8 8 8 7 7 7 7 7
4 4 4 4 5 5 5 6 6 7 7 7 7 7 7 7 7 7 7 6 7 7 8 8 9 10 11 11 12 13 13 13 13 12 10 8 8 7 7 6 7 7 7
Wind_Direction
280 281 286 290 291 293 294 294 295 295 297 297 297 297 298 298 297 294 289 287 281 276 273 271 269 269 264 258 255 252 252 252 258 270 269 267 259 256 254 251 249 241 235
281 279 283 287 289 291 292 295 297 296 295 295 295 294 294 295 293 290 288 285 280 276 274 271 271 269 265 263 258 254 252 250 254 266 269 265 261 253 250 250 252 241 233
281 279 282 286 290 291 294 296 296 296 296 295 293 292 292 293 292 289 284 281 278 275 274 272 271 269 268 266 263 257 254 252 252 257 261 263 265 257 251 253 253 241 235
280 277 281 286 290 293 295 296 295 296 295 295 294 293 292 292 290 289 284 280 277 275 274 272 270 268 269 270 267 262 256 252 249 250 255 253 259 258 244 244 249 243 237
278 278 281 285 287 290 293 295 296 295 295 296 296 295 293 291 289 290 286 280 278 276 274 272 270 271 273 274 273 269 259 251 248 247 251 250 249 245 240 239 242 238 246
277 278 283 284 285 289 293 297 298 298 298 297 296 296 294 291 295 295 294 287 281 277 277 277 275 272 274 274 275 273 266 255 250 247 250 245 243 244 244 238 235 233 247
282 284 285 283 286 292 295 297 298 300 300 298 297 296 295 294 298 300 298 295 288 281 279 280 279 277 278 279 278 275 269 262 260 255 250 250 248 242 238 236 234 241 249
290 290 291 291 291 294 295 296 298 299 298 297 297 298 297 297 302 303 302 296 289 285 280 277 277 277 275 281 283 279 276 273 268 260 255 255 259 255 241 240 241 247 267
295 295 296 295 294 295 296 297 298 298 297 297 297 298 298 299 303 304 305 296 287 286 284 280 279 278 279 281 281 279 282 285 282 271 269 264 257 257 252 243 230 221 245
301 299 298 296 293 292 294 296 296 295 295 297 296 297 297 298 302 305 307 297 291 290 288 284 280 282 285 281 278 280 282 287 290 284 275 270 262 248 239 232 228 225 238
303 301 299 298 294 292 293 294 295 295 295 295 297 296 296 298 303 306 307 300 294 291 289 287 285 288 287 283 281 277 280 288 287 284 277 267 262 254 247 242 236 230 230
304 302 302 302 300 297 296 297 297 295 294 296 299 301 300 300 302 306 308 304 298 292 289 287 287 291 290 287 285 286 284 286 282 282 278 269 261 259 260 259 253 261 262
305 304 303 303 301 301 299 299 299 297 295 298 300 302 304 305 307 308 308 309 303 297 292 292 292 291 291 286 286 286 283 280 274 272 276 278 277 272 272 279 296 300 327
304 305 305 305 305 304 302 299 298 300 300 300 300 302 306 307 308 310 310 310 309 303 299 296 292 289 290 292 291 292 289 284 278 273 280 287 289 272 254 249 255 227 244
304 305 306 305 304 303 301 299 298 294 297 303 305 304 305 304 306 310 310 310 311 306 307 301 296 299 300 300 299 300 299 296 289 282 278 282 284 278 274 270 254 235 240
304 306 306 305 306 305 304 304 298 298 304 306 308 307 305 306 311 310 309 309 309 308 304 295 294 292 292 295 296 297 295 293 291 285 277 276 275 272 277 274 252 236 229
301 304 304 304 305 305 306 308 310 311 308 309 313 315 314 317 320 321 318 315 315 315 301 290 290 290 290 290 290 290 290 291 288 282 276 273 277 274 268 260 249 242 235
302 303 303 302 303 303 303 305 307 311 314 314 316 320 321 322 324 325 325 320 315 316 306 296 291 291 289 287 286 285 286 288 284 280 277 272 271 271 265 256 248 241 234
304 306 305 303 302 302 303 303 304 306 307 310 315 321 326 325 325 329 331 323 314 310 307 303 297 294 290 287 286 284 283 282 282 278 276 269 262 263 262 255 252 244 240
301 306 309 305 304 305 305 306 307 308 309 310 314 318 322 324 323 325 326 317 310 306 305 302 299 295 292 290 287 284 281 281 281 275 273 269 261 257 258 253 246 241 240
302 305 307 304 303 305 306 307 307 308 309 309 311 316 321 317 314 314 314 311 307 304 303 301 299 297 292 289 285 282 280 279 277 274 270 268 264 260 261 254 250 244 239
302 302 303 302 305 307 308 307 307 307 308 308 309 314 318 314 309 308 308 305 304 303 301 298 294 293 291 289 285 280 276 275 275 272 269 266 262 258 257 252 248 243 233
302 301 302 303 304 308 310 310 309 308 308 309 310 312 313 311 309 308 306 304 302 300 298 294 291 291 293 291 286 279 276 275 273 270 266 262 258 254 250 247 243 241 234
305 305 303 303 305 307 308 309 310 309 308 308 309 309 308 308 307 307 306 305 303 300 298 293 288 289 292 294 290 285 280 279 279 270 262 258 257 255 248 245 243 240 234
305 304 303 302 304 306 307 308 309 309 308 308 308 307 307 306 306 306 305 304 304 300 299 295 292 291 291 291 290 290 289 286 282 277 266 257 253 250 244 244 241 240 234
308 305 304 304 303 303 304 305 305 306 305 305 305 304 304 304 303 303 303 303 303 301 301 298 294 295 295 294 292 292 294 292 287 282 275 262 254 248 242 240 239 236 234
Height
1511 1509 1508 1506 1505 1504 1502 1500 1498 1496 1494 1492 1490 1488 1486 1484 1482 1480 1478 1477 1475 1474 1473 1473 1472 1471 1471 1470 1470 1471 1471 1470 1469 1467 1468 1468 1468 1468 1468 1469 1469 1470 1472
1507 1505 1504 1502 1501 1499 1498 1496 1494 1492 1490 1487 1485 1483 1481 1479 1477 1475 1473 1471 1470 1468 1468 1467 1466 1466 1465 1464 1464 1464 1464 1464 1463 1461 1461 1462 1462 1463 1463 1463 1464 1465 1466
1502 1501 1500 1498 1496 1495 1493 1491 1489 1487 1485 1483 1480 1478 1476 1474 1472 1470 1468 1466 1465 1463 1462 1461 1460 1460 1459 1458 1458 1457 1457 1457 1457 1457 1455 1456 1456 1457 1457 1457 1458 1459 1461
1498 1497 1495 1494 1492 1490 1489 1487 1484 1482 1480 1478 1475 1473 1471 1469 1467 1465 1463 1461 1460 1458 1457 1456 1455 1454 1453 1452 1451 1450 1451 1451 1451 1451 1450 1450 1450 1451 1452 1452 1453 1454 1455
1494 1493 1491 1490 1488 1486 1484 1482 1480 1478 1475 1473 1470 1468 1466 1464 1462 1460 1458 1456 1454 1453 1451 1450 1449 1448 1447 1446 1446 1445 1445 1444 1444 1444 1444 1444 1445 1446 1447 1447 1448 1449 1450
1490 1488 1487 1485 1483 1482 1480 1477 1475 1473 1471 1468 1466 1463 1461 1459 1457 1455 1454 1452 1450 1448 1446 1445 1444 1443 1442 1441 1440 1439 1439 1439 1439 1439 1439 1439 1439 1440 1442 1442 1443 1444 1445
1486 1484 1483 1481 1479 1477 1475 1473 1471 1468 1466 1463 1461 1459 1456 1454 1452 1450 1449 1447 1445 1443 1441 1440 1439 1438 1437 1435 1434 1434 1434 1433 1434 1434 1434 1434 1434 1435 1436 1437 1438 1439 1440
1482 1480 1479 1477 1475 1473 1471 1469 1466 1464 1461 1459 1456 1454 1451 1449 1447 1445 1443 1442 1439 1438 1436 1435 1434 1433 1432 1431 1429 1429 1428 1427 1428 1428 1428 1428 1429 1430 1431 1432 1433 1434 1435
1478 1477 1475 1473 1471 1469 1467 1464 1462 1460 1457 1455 1452 1449 1447 1444 1442 1440 1439 1436 1435 1433 1431 1430 1429 1428 1427 1427 1425 1424 1423 1422 1422 1422 1423 1423 1424 1425 1426 1427 1427 1428 1428
1475 1473 1471 1469 1467 1465 1462 1460 1458 1455 1453 1450 1447 1445 1442 1440 1437 1436 1434 1432 1430 1429 1427 1426 1425 1424 1423 1422 1421 1419 1418 1417 1417 1416 1417 1417 1418 1419 1420 1421 1422 1423 1423
1472 1469 1467 1465 1463 1461 1458 1456 1454 1451 1449 1446 1443 1441 1438 1436 1433 1431 1430 1428 1427 1425 1423 1421 1420 1420 1418 1417 1417 1415 1414 1413 1412 1412 1411 1412 1412 1413 1414 1415 1417 1418 1418
1468 1466 1464 1461 1459 1457 1455 1452 1450 1448 1445 1442 1439 1436 1434 1432 1430 1427 1425 1424 1423 1421 1419 1417 1416 1415 1414 1413 1412 1411 1410 1409 1409 1408 1407 1407 1408 1409 1410 1411 1412 1413 1414
1465 1462 1460 1458 1456 1453 1451 1449 1446 1444 1441 1439 1436 1433 1430 1428 1426 1424 1422 1420 1418 1417 1415 1414 1412 1411 1410 1409 1408 1407 1406 1406 1405 1404 1404 1404 1404 1405 1405 1406 1407 1408 1409
1461 1459 1457 1454 1452 1450 1448 1446 1443 1441 1438 1435 1433 1430 1427 1425 1422 1420 1418 1416 1414 1413 1411 1410 1408 1407 1406 1405 1404 1404 1403 1402 1402 1401 1400 1400 1400 1401 1401 1402 1403 1404 1405
1458 1456 1454 1451 1449 1446 1444 1442 1440 1437 1435 1433 1430 1427 1424 1421 1419 1418 1415 1413 1411 1410 1408 1406 1405 1404 1403 1402 1401 1400 1400 1399 1398 1398 1397 1397 1397 1397 1398 1399 1399 1400 1401
1455 1453 1451 1448 1446 1444 1441 1438 1436 1434 1431 1429 1426 1424 1421 1419 1416 1414 1412 1410 1408 1406 1405 1403 1402 1401 1400 1399 1398 1397 1396 1396 1395 1395 1394 1394 1394 1394 1394 1395 1396 1397 1397
1453 1450 1448 1446 1443 1441 1438 1435 1432 1430 1428 1425 1422 1420 1417 1415 1412 1410 1408 1406 1404 1403 1401 1399 1398 1397 1397 1396 1395 1394 1393 1393 1393 1392 1392 1391 1391 1391 1391 1391 1392 1393 1394
1450 1448 1445 1443 1441 1438 1435 1433 1430 1427 1424 1421 1419 1416 1413 1411 1409 1406 1404 1403 1400 1399 1397 1396 1395 1394 1393 1392 1391 1391 1390 1390 1389 1389 1388 1388 1388 1388 1388 1388 1389 1389 1390
1447 1445 1443 1440 1438 1436 1433 1430 1427 1424 1421 1418 1415 1413 1410 1408 1405 1403 1401 1399 1397 1396 1394 1393 1392 1391 1389 1389 1388 1387 1387 1386 1386 1385 1385 1385 1385 1385 1385 1385 1385 1386 1387
1444 1442 1440 1438 1435 1433 1430 1427 1425 1422 1419 1416 1413 1410 1408 1405 1402 1400 1398 1396 1395 1393 1391 1390 1388 1387 1386 1385 1384 1384 1383 1382 1382 1382 1381 1381 1381 1382 1382 1382 1382 1382 1383
1441 1439 1437 1435 1432 1430 1427 1425 1422 1419 1416 1414 1411 1408 1406 1403 1400 1398 1396 1394 1392 1390 1389 1387 1386 1384 1383 1382 1381 1380 1379 1379 1378 1378 1377 1377 1377 1377 1377 1378 1378 1379 1379
1438 1436 1434 1432 1429 1427 1425 1422 1420 1417 1414 1411 1408 1406 1403 1401 1398 1396 1394 1392 1390 1388 1386 1384 1383 1381 1380 1379 1378 1377 1376 1375 1374 1374 1373 1373 1373 1373 1373 1374 1374 1375 1375
1436 1433 1431 1429 1427 1424 1422 1419 1417 1414 1411 1408 1406 1403 1400 1398 1395 1393 1391 1389 1387 1385 1383 1381 1380 1378 1377 1375 1374 1373 1372 1371 1370 1370 1369 1369 1369 1369 1369 1369 1370 1370 1371
1433 1431 1428 1426 1424 1422 1419 1417 1414 1411 1409 1406 1403 1400 1397 1395 1392 1390 1388 1386 1383 1381 1379 1378 1376 1374 1373 1372 1371 1369 1368 1367 1366 1366 1365 1365 1365 1365 1365 1365 1365 1366 1367
1430 1428 1426 1423 1421 1419 1416 1414 1411 1409 1406 1403 1400 1397 1394 1392 1389 1387 1385 1382 1380 1378 1376 1374 1372 1371 1369 1368 1366 1365 1364 1363 1362 1361 1361 1361 1360 1360 1360 1361 1361 1362 1363
1427 1425 1423 1421 1418 1416 1414 1411 1408 1406 1403 1400 1397 1394 1391 1389 1386 1384 1381 1379 1376 1374 1372 1370 1369 1367 1365 1364 1362 1361 1359 1358 1357 1356 1356 1355 1355 1355 1355 1356 1357 1358 1359